This demonstration page uses our WeatherBlox Daily Observations layout. Learn more.

39.92423, -83.80882

Hourly Observations for April 16, 2019

Temp ( °F °C ) Dew Point ( °F °C ) Humidity (%) Winds ( mph kmh ) Pressure ( in mb ) Visibility ( mi km ) Precip ( " mm )
12:56 am 00:56 Clear 42 5.6 34 1.1 73 73 SSW 6 9 30.15 1021 10 16.0934 0 0
1:56 am 01:56 Clear 41 5 35 1.7 79 79 S 6 9 30.15 1021 10 16.0934 0 0
2:56 am 02:56 Clear 40 4.4 35 1.7 83 83 S 6 9 30.14 1021 10 16.0934 0 0
3:56 am 03:56 Partly Cloudy 40 4.4 35 1.7 83 83 S 6 9 30.14 1021 10 16.0934 0 0
4:56 am 04:56 Mostly Cloudy 40 4.4 35 1.7 83 83 S 5 7 30.15 1021 10 16.0934 0 0
5:56 am 05:56 Mostly Clear 40 4.4 35 1.7 83 83 S 5 7 30.16 1021 10 16.0934 0 0
6:56 am 06:56 Clear 39 3.9 35 1.7 86 86 SSE 9 15 30.15 1021 10 16.0934 0 0
7:56 am 07:56 Sunny 41 5 36 2.2 82 82 S 10 17 30.15 1021 10 16.0934 0 0
8:56 am 08:56 Sunny 44 6.7 38 3.3 79 79 S 7 11 30.15 1021 10 16.0934 0 0
9:56 am 09:56 Sunny 52 11.1 39 3.9 61 61 SSW 10 17 30.14 1021 10 16.0934 0 0
10:56 am 10:56 Sunny 57 13.9 41 5 55 55 SSW 15 24 30.12 1020 10 16.0934 0 0
11:56 am 11:56 Sunny 60 15.6 42 5.6 52 52 SW 16 26 30.1 1019 10 16.0934 0 0
12:56 pm 12:56 Sunny 63 17.2 44 6.7 50 50 SW 17 28 30.06 1018 10 16.0934 0 0
1:56 pm 13:56 Sunny 67 19.4 46 7.8 47 47 SSW 16 26 30.03 1017 10 16.0934 0 0
2:56 pm 14:56 Sunny 70 21.1 47 8.3 44 44 WSW 20 31 30.01 1016 10 16.0934 0 0
3:56 pm 15:56 Sunny 72 22.2 49 9.4 44 44 SW 16 26 29.98 1015 10 16.0934 0 0
4:56 pm 16:56 Sunny 72 22.2 49 9.4 44 44 SW 16 26 29.96 1015 10 16.0934 0 0
5:56 pm 17:56 Sunny 72 22.2 49 9.4 44 44 SW 15 24 29.96 1015 10 16.0934 0 0
6:56 pm 18:56 Sunny 70 21.1 49 9.4 47 47 SW 15 24 29.96 1015 10 16.0934 0 0
7:56 pm 19:56 Sunny 68 20 50 10 53 53 SW 9 15 29.97 1015 10 16.0934 0 0
8:56 pm 20:56 Mostly Cloudy 66 18.9 48 8.9 52 52 S 3 6 29.98 1015 10 16.0934 0 0
9:56 pm 21:56 Partly Cloudy 64 17.8 48 8.9 56 56 S 3 6 30 1016 10 16.0934 0 0
10:56 pm 22:56 Clear 58 14.4 47 8.3 67 67 Calm 30 1016 10 16.0934 0 0
11:56 pm 23:56 Clear 55 12.8 48 8.9 77 77 SSW 3 6 30.01 1016 10 16.0934 0 0

Powered by AerisWeather